Location: *
(40.4000°N, 15.1200°E)
Time: 05:49:09
(UTC+00:00)

Cosmos 2082 Rocket - Pass Details

Date: 09 April 2020
Orbit: 832 x 855 km, 71.0° (Epoch: 05 June)

Event Time Altitude Azimuth Distance (km) Brightness Sun altitude
Exits shadow 22:14:57 22° 331° (NNW) 1,761 4.3 -40.4°
Drops below altitude 10° 22:17:55 10° 0° (N) 2,466 5.2 -40.6°
Sets 22:20:50 0° 14° (NNE) 3,409 6.1 -40.7°
